Tracking 19709 objects as of 20-Jun-2019
HD Live streaming from Space Station
objects crossing your sky now

FENGYUN 1C DEB

Track FENGYUN 1C DEB now!
10-day predictions


NORAD ID: 31622
Int'l Code: 1999-025CAC
Perigee: 825.9 km
Apogee: 852.7 km
Inclination: 98.9 °
Period: 101.6 minutes
Semi major axis: 7210 km
RCS: 0.0179 m2 (small)
Launch date: May 10, 1999
Source: People's Republic of China (PRC)
Launch site: Taiyaun Space Center, China (TSC)

Note: This is SATELLITE DEBRIS
aabbcc
Your satellite tracking list
Your tracking list is empty




NASA's NSSDC Master Catalog

Two Line Element Set (TLE):
1 31622U 99025CAC 19170.80643372 +.00000316 +00000-0 +17650-3 0  9992
2 31622 098.9495 214.6590 0018645 335.2113 088.2539 14.17989124620918
Source of the keplerian elements: AFSPC